Other Public Products
Issued by NWS Charleston, SC

Home | Current Version | Previous Version | Text Only | Print | Product List | Glossary On
Versions: 1 2 3 4 5 6 7 8 9 10 11 12 13 14 15 16 17 18 19 20 21 22 23 24 25 26 27 28 29 30 31 32 33 34 35 36 37 38 39 40 41 42 43 44 45 46 47 48 49 50
830
FPUS82 KCHS 240912
OPUCHS

TEST...KCHS/KSAV Gateway Observations...TEST
National Weather Service Charleston SC
500 AM EDT MON JUL 24 2017

NOTE: "fair" indicates few or no clouds below 12,000 feet with no
significant weather and/or obstructions to visibility.

SCZ050-WAZ558-NCZ071-TXZ119-213-PAZ071-DCZ001-FLZ074-172-MI076-
NYZ176-178-MAZ016-IL014-TNZ027-NJZ106-GAZ044-MD014-241000-

...Gateway Observations for Charleston International...

CITY           SKY/WX    TMP DP  RH WIND       PRES   REMARKS
Chas Airport   MOCLDY    79  73  82 SW9       29.92R
Seattle        CLEAR     62  53  72 NE9       30.04S
Charlotte      MOCLDY    72  69  90 S7        29.88S
Dallas DFW     LGT RAIN  76  73  91 W13       29.89F
Dallas Love    LGT RAIN  75  71  87 W12       29.89F
Philladelphia  CLOUDY    72  70  93 E8        29.74F
Wash National  CLOUDY    76  73  91 SW6       29.72F
Baltimore      MOCLDY    72  72 100 S3        29.71F
Miami          PTCLDY    83  75  77 CALM      30.02R HX  90
Detroit        MOCLDY    67  64  90 N7        29.82R
Newark         RAIN      71  67  87 E14       29.77S FOG
Laguardia      RAIN      71  69  93 NE13      29.77F
J F K          RAIN      71  69  93 E14       29.78F
Boston Logan   CLOUDY    65  59  81 E9        29.93
Ft. Lauderdale PTCLDY    81  77  88 CALM      30.01R
Chicago O`Hare CLOUDY    68  60  75 N9        29.93R
Chicago Midway CLOUDY    70  62  76 N12       29.92R
Houston Bush   CLOUDY    82  76  81 SW7       29.94S
Houston Hobby  CLOUDY    82  76  81 SW3       29.95R
Nashville      CLOUDY    71  68  90 S5        29.90F
Atlanta        LGT RAIN  77  73  87 W7        29.93F

$$

GAZ044-118-TXZ119-213-NCZ071-DCZ001-MDZ014-506-PAZ021-071-NJZ106-
NYZ176-178-MAZ106-OHZ011-021-055-MIZ076-KYZ091-ILZ014-INZ047-
MNZ060-ONZ431-241000-

...Gateway Observations for Savannah International...

CITY           SKY/WX    TMP DP  RH WIND       PRES   REMARKS
Savannah Arpt  CLOUDY   N/A N/A N/A SW9       29.95S
Atlanta        LGT RAIN  77  73  87 W7        29.93F
Charlotte      MOCLDY    72  69  90 S7        29.88S
Dallas DFW     LGT RAIN  76  73  91 W13       29.89F
Houston Bush   CLOUDY    82  76  81 SW7       29.94S
Wash National  CLOUDY    76  73  91 SW6       29.72F
Wash Dulles    PTCLDY    73  71  93 W5        29.73F
Baltimore      MOCLDY    72  72 100 S3        29.71F
Philadelphia   CLOUDY    72  70  93 E8        29.74F
Newark         RAIN      71  67  87 E14       29.77S FOG
Laguardia      RAIN      71  69  93 NE13      29.77F
J F K          RAIN      71  69  93 E14       29.78F
Boston         CLOUDY    65  59  81 E9        29.93
Pittsburg      CLOUDY    67  67 100 W5        29.81R
Akron          PTCLDY    67  63  87 W6        29.82R
Cleveland      MOCLDY    69  65  86 SW6       29.81R
Cincinnati     PTCLDY    69  69 100 SW5       29.86S
Columbus       CLEAR     65  65 100 SW6       29.83R
Detroit        MOCLDY    67  64  90 N7        29.82R
Chicago O`Hare CLOUDY    68  60  75 N9        29.93R
Minneapolis    CLEAR     62  56  80 NE3       30.04S
Indianapolis   PTCLDY    69  65  86 NW13      29.85F
Toronto Canada MOCLDY    68  57  68 NE3       29.71S

$$




USA.gov is the U.S. government's official web portal to all federal, state and local government web resources and services.